Weather Roundup
Issued by NWS Chicago, IL

Home | Current Version | Previous Version | Text Only | Print | Product List | Glossary Off
Versions: 1 2 3 4 5 6 7 8 9 10 11 12 13 14 15 16 17 18 19 20 21 22 23 24 25 26 27 28 29 30 31 32 33 34 35 36 37 38 39 40 41 42 43 44 45 46 47 48 49 50

000
NZUS59 KLOT 051700
HRRLOT

CHICAGO AREA WEATHER ROUNDUP
NATIONAL WEATHER SERVICE CHICAGO/ROMEOVILLE IL
1100 AM CST THU MAR 05 2015

NOTE: "FAIR" INDICATES FEW OR NO CLOUDS BELOW 12,000 FEET WITH NO
SIGNIFICANT WEATHER AND/OR OBSTRUCTIONS TO VISIBILITY.

* THESE STATIONS ARE NOT UNDER NWS QUALITY CONTROL. THEY ALSO MAY NOT
  REPORT WEATHER SUCH AS PRECIPITATION OR FOG.

ILZ005-006-012>014-019>023-051800-
NORTHEAST ILLINOIS

CITY           SKY/WX    TMP DP  RH WIND       PRES   REMARKS
OHARE          SUNNY     14  -6  40 NW12      30.47R WCI   0
MIDWAY         MOSUNNY   18  -4  37 NW10      30.48R WCI   6
AURORA         SUNNY     11  -2  56 NW9       30.50R WCI  -2
WAUKEGAN       SUNNY     12  -8  40 W12G17    30.47R WCI  -2
DUPAGE AIRPORT SUNNY     13  -6  42 NW10      30.48R WCI   0
WHEELING       SUNNY     15  -5  40 NW9       30.49R WCI   3
NORTHERLY IS     N/A     18  -4  37 SW12        N/A  WCI   6
$$

WIZ051-052-058>065-066-070>072-051800-
SOUTHEAST WISCONSIN

CITY           SKY/WX    TMP DP  RH WIND       PRES   REMARKS
MILWAUKEE      SUNNY     12  -9  38 NW9       30.48R WCI   0
KENOSHA*       SUNNY     10  -5  50 NW10      30.47R WCI  -4
RACINE*        SUNNY     12  -7  42 W7        30.49R WCI   1
WAUKESHA       SUNNY      7  -9  47 NW16      30.47S WCI -11
$$

INZ001>003-010>013-019-020-051800-
NORTHWEST INDIANA

CITY           SKY/WX    TMP DP  RH WIND       PRES   REMARKS
GARY*          MOSUNNY  N/A N/A N/A NW12      30.47R
MICHIGAN CITY* NOT AVBL
RENSSELAER*    NOT AVBL
VALPARAISO     PTSUNNY   18   5  57 W8        30.43R WCI   8
$$

LMZ740>746-051800-
SOUTHERN LAKE MICHIGAN

STATION/POSITION TIME  SKY/WX   TEMP WIND        PRES    VSBY
                                AIR  DIR/SP/G
                 (UTC)          (F)  (DEG/KT/KT) (MB)    (MI)
HARRISON CRIB    1600            13  300/  9/ 12   N/A
BURNHAM HARBOR   1700            17  280/  7/ 12   N/A
CALUMET HARBOR   1600            17  300/  6/ 12 1030.1R
BURNS HARBOR     NOT AVBL
MICHIGAN CITY    1600            18  280/ 16/ 18   N/A
$$

ABBREVIATIONS USED IN REMARKS
   TC - TEMPERATURE IN CELSIUS
  WCI - WIND CHILL INDEX
   HX - HEAT INDEX
  VSB - VISIBILITY
$$



USA.gov is the U.S. government's official web portal to all federal, state and local government web resources and services.